Flag for Germany Weather past 2 weeks in Forchheim, Bavaria, Germany

49 °F

Light rain. Overcast.

Feels Like: 46 °F
Forecast: 49 / 52 °F
Wind: 8 mph from Southwest

Location: Bamberg

Current Time: Nov 30, 2015 at 9:50:47 PM

Latest Report: Nov 30, 2015 at 9:00 PM

Visibility: 11 mi

Pressure: 30.01 "Hg

Humidity: 81%

Dew point: 44 °F

Location of ForchheimLocation

Historic Weather in Forchheim — Graph


Forchheim temperature yesterday

Maximum temperature yesterday: 49 °F (at 10:00 PM)
Minimum temperature yesterday: 35 °F (at 1:00 AM)
Average temperature yesterday: 42 °F

Past Weeks' High & Low Weather Summary

High60 °F (Nov 16, 1:00 PM)100% (Nov 21, 8:00 PM)30.32 "Hg (Nov 21, 8:00 PM)
Low29 °F (Nov 27, 9:00 AM)41% (Nov 16, 1:00 PM)29.41 "Hg (Nov 21, 3:00 PM)
Average42 °F87%29.95 "Hg
* Reported Nov 15 9:00 PM — Nov 30 9:00 PM, Forchheim, Weather by CustomWeather, © 2015

Note: Actual official high and low records may vary slightly from our data, if they occured in-between our weather recording intervals... More about our weather records


Forchheim weather history for previous 24 hours

Time TempWeatherWind HumidityBarometerVisibility
9:00 PM
Mon, Nov 30
49 °FLight rain. Overcast.8 mph81%30.01 "Hg11 mi
8:00 PM50 °FLight rain. Overcast.9 mph78%30.01 "Hg43 mi
7:00 PM50 °FOvercast.6 mph78%30.03 "Hg43 mi
6:00 PM49 °FOvercast.7 mph82%30.05 "Hg43 mi
5:00 PM48 °FLight rain. Overcast.5 mph88%30.05 "Hg15 mi
4:00 PM49 °FLight rain. Overcast.6 mph90%30.07 "Hg9 mi
3:00 PM47 °FLight rain. Low clouds.1 mph95%30.09 "Hg6 mi
2:00 PM45 °FLight freezing rain. Low clouds.1 mph98%30.12 "Hg2 mi
1:00 PM46 °FLight rain. Overcast.2 mph87%30.14 "Hg11 mi
12:00 PM46 °FLight rain. Overcast.6 mph87%30.16 "Hg19 mi
11:00 AM45 °FCool.3 mph84%30.16 "Hg37 mi
10:00 AM45 °FLight rain. Overcast.8 mph83%30.15 "Hg8 mi
9:00 AM45 °FLight rain. Overcast.6 mph84%30.13 "Hg9 mi
7:00 AM46 °FLight rain. Overcast.5 mph90%30.07 "Hg9 mi
4:00 AM50 °FDrizzle. Overcast.10 mph79%29.98 "Hg16 mi
3:00 AM50 °FDrizzle. Overcast.10 mph74%29.97 "Hg25 mi
1:00 AM51 °FOvercast.9 mph74%29.96 "Hg40 mi
10:00 PM
Sun, Nov 29
49 °FDrizzle. Overcast.10 mph78%29.96 "Hg40 mi
9:00 PM49 °FOvercast.10 mph80%29.96 "Hg43 mi
Weather by CustomWeather, © 2015

See weather overviewHow to use our weather pages